Lawton, OK

7:24 PM CST on February 11, 2016 (GMT -0600)
Lawton-Fort Sill Regional

Weather History for KLAW - July, 2013

Change the Weather History Date:

Tuesday, July 30, 2013

  Actual Average Record
Temperature  
Mean Temperature 86 °F -  
Max Temperature 98 °F 95 °F 109 °F (2012)
Min Temperature 75 °F 70 °F 54 °F (1982)
Cooling Degree Days 21    
Growing Degree Days 36 (Base 50)    
Moisture  
Dew Point 70 °F    
Average Humidity 59    
Maximum Humidity 79    
Minimum Humidity 41    
Precipitation  
Precipitation 0.00 in - - ()
Sea Level Pressure  
Sea Level Pressure 29.95 in    
Wind  
Wind Speed 8 mph (ESE)    
Max Wind Speed 22 mph    
Max Gust Speed 28 mph    
Visibility 10 miles    
Events      
Averages and records for this station are not official NWS values.
T = Trace of Precipitation, MM = Missing Value Source: NWS Daily Summary

Daily Weather History Graph

Daily Weather History Graph

Search for Another Location

Airport or City:

Trip Planner

Search our weather history database for the weather conditions in past years. The results will help you decide how hot, cold, wet, or windy it might be!

Date:

Astronomy

Jul. 30, 2013 Rise Set
Actual Time 6:42 AM CDT 8:37 PM CDT
Civil Twilight 6:14 AM CDT 9:04 PM CDT
Nautical Twilight 5:41 AM CDT 9:38 PM CDT
Astronomical Twilight 5:05 AM CDT 10:13 PM CDT
Moon 12:59 AM CDT (7/30) 2:59 PM CDT (7/30)
Length of Visible Light 14h 49m
Length of Day
13h 54m
Last Quarter, 41% of the Moon is Illuminated
Jul 30
Last Quarter
Aug 6
New
Aug 14
First Quarter
Aug 20
Full
Aug 28
Last Quarter

Hourly Weather History & Observations

Time (CDT) Temp. Heat Index Dew Point Humidity Pressure Visibility Wind Dir Wind Speed Gust Speed Precip Events Conditions
12:53 AM 82.0 °F 84.9 °F 68.0 °F 62% 29.88 in 10.0 mi South 6.9 mph - N/A   Clear
1:53 AM 81.0 °F 83.8 °F 68.0 °F 65% 29.94 in 10.0 mi NNE 10.4 mph - N/A   Clear
2:53 AM 81.0 °F 83.8 °F 68.0 °F 65% 29.95 in 10.0 mi East 4.6 mph - N/A   Overcast
3:53 AM 80.1 °F 82.7 °F 68.0 °F 67% 29.96 in 10.0 mi ENE 6.9 mph - N/A   Mostly Cloudy
4:53 AM 78.1 °F - 68.0 °F 71% 29.97 in 10.0 mi NE 5.8 mph - N/A   Clear
5:53 AM 75.9 °F - 69.1 °F 79% 29.96 in 10.0 mi Calm Calm - N/A   Scattered Clouds
6:53 AM 77.0 °F - 66.9 °F 71% 29.96 in 10.0 mi SE 10.4 mph - N/A   Scattered Clouds
7:53 AM 78.1 °F - 66.9 °F 68% 29.94 in 10.0 mi SSE 12.7 mph - N/A   Clear
8:53 AM 81.0 °F 83.8 °F 68.0 °F 65% 29.95 in 10.0 mi South 13.8 mph - N/A   Clear
9:53 AM 86.0 °F 90.7 °F 70.0 °F 59% 29.94 in 10.0 mi South 21.9 mph 27.6 mph N/A   Clear
10:53 AM 90.0 °F 96.4 °F 71.1 °F 54% 29.96 in 10.0 mi SSW 12.7 mph 19.6 mph N/A   Clear
11:53 AM 91.9 °F 98.4 °F 71.1 °F 50% 29.97 in 10.0 mi SW 10.4 mph 18.4 mph N/A   Clear
12:53 PM 93.9 °F 99.1 °F 69.1 °F 44% 29.96 in 10.0 mi SW 11.5 mph - N/A   Clear
1:53 PM 96.1 °F 101.6 °F 69.1 °F 41% 29.94 in 10.0 mi WSW 10.4 mph - N/A   Partly Cloudy
2:53 PM 96.1 °F 101.6 °F 69.1 °F 41% 29.94 in 10.0 mi South 6.9 mph - N/A   Scattered Clouds
3:53 PM 96.1 °F 101.6 °F 69.1 °F 41% 29.93 in 10.0 mi SW 6.9 mph - N/A   Partly Cloudy
4:53 PM 95.0 °F 102.5 °F 71.1 °F 46% 29.93 in 10.0 mi North 8.1 mph - N/A   Mostly Cloudy
5:53 PM 97.0 °F 104.8 °F 71.1 °F 43% 29.91 in 10.0 mi NNE 8.1 mph - N/A   Clear
6:53 PM 95.0 °F 104.5 °F 73.0 °F 49% 29.91 in 10.0 mi NNE 8.1 mph - N/A   Mostly Cloudy
7:53 PM 91.0 °F 99.3 °F 73.0 °F 55% 29.93 in 10.0 mi NE 9.2 mph - N/A   Clear
8:53 PM 88.0 °F 95.6 °F 73.0 °F 61% 29.95 in 10.0 mi NE 10.4 mph - N/A   Scattered Clouds
9:53 PM 87.1 °F 95.4 °F 73.9 °F 65% 29.98 in 10.0 mi NE 10.4 mph - N/A   Mostly Cloudy
10:53 PM 82.9 °F 90.2 °F 75.0 °F 77% 29.98 in 10.0 mi Calm Calm - N/A   Clear
11:53 PM 82.0 °F 88.6 °F 75.0 °F 79% 29.98 in 10.0 mi NE 6.9 mph - N/A   Clear